This demonstration page uses our WeatherBlox Daily Observations layout. Learn more.

Left ArrowRight Arrow

38.88101, -77.10428

Hourly Observations for December 5, 2015

Temp ( °F °C ) Dew Point ( °F °C ) Humidity (%) Winds ( mph kmh ) Pressure ( in mb ) Visibility ( mi km ) Precip ( " mm )
12:52 am 00:52 Clear 40 4.4 34 1.1 79 79 N N/A 30.63 1037 10 16 N/A
1:52 am 01:52 Clear 38 3.3 34 1.1 86 86 N 5 7 30.65 1038 10 16 N/A
2:52 am 02:52 Clear 38 3.3 33 0.6 83 83 N 3 6 30.66 1038 10 16 N/A
3:52 am 03:52 Mostly Clear 37 2.8 33 0.6 86 86 N N/A 30.66 1038 10 16 N/A
4:52 am 04:52 Mostly Clear 36 2.2 31 -0.6 82 82 N 5 7 30.67 1039 10 16 N/A
5:52 am 05:52 Clear 36 2.2 32 undefined 86 86 N 5 7 30.68 1039 10 16 N/A
6:52 am 06:52 Clear 36 2.2 30 -1.1 79 79 NNW 6 9 30.69 1039 10 16 N/A
7:52 am 07:52 Sunny 36 2.2 31 -0.6 82 82 N 6 9 30.71 1040 10 16 N/A
8:52 am 08:52 Sunny 41 5 33 0.6 73 73 NNE 3 6 30.72 1040 10 16 N/A
9:52 am 09:52 Sunny 45 7.2 34 1.1 66 66 N N/A 30.73 1041 10 16 N/A
10:52 am 10:52 Sunny 48 8.9 35 1.7 61 61 ENE 5 7 30.73 1041 10 16 N/A
11:52 am 11:52 Sunny 50 10 33 0.6 52 52 N N/A 30.70 1040 10 16 N/A
12:52 pm 12:52 Sunny 51 10.6 34 1.1 52 52 N N/A 30.68 1039 10 16 N/A
1:52 pm 13:52 Sunny 53 11.7 34 1.1 48 48 ENE 3 6 30.66 1038 10 16 N/A
2:52 pm 14:52 Sunny 53 11.7 35 1.7 51 51 E 5 7 30.65 1038 10 16 N/A
3:52 pm 15:52 Sunny 52 11.1 35 1.7 53 53 E 3 6 30.65 1038 10 16 N/A
4:52 pm 16:52 Clear 50 10 34 1.1 54 54 ESE 3 6 30.65 1038 10 16 N/A
5:52 pm 17:52 Clear 48 8.9 35 1.7 61 61 N N/A 30.66 1038 10 16 N/A
6:52 pm 18:52 Clear 46 7.8 36 2.2 68 68 SSE 3 6 30.67 1039 10 16 N/A
7:52 pm 19:52 Clear 45 7.2 36 2.2 71 71 SSE 3 6 30.68 1039 10 16 N/A
8:52 pm 20:52 Clear 43 6.1 37 2.8 80 80 N N/A 30.67 1039 10 16 N/A
9:52 pm 21:52 Clear 42 5.6 38 3.3 85 85 N N/A 30.66 1038 10 16 N/A
10:52 pm 22:52 Clear 41 5 36 2.2 82 82 N N/A 30.65 1038 9 14 N/A
11:52 pm 23:52 Clear 39 3.9 34 1.1 82 82 N N/A 30.64 1038 9 14 N/A

Powered by AerisWeather